TimeEST,TemperatureF,Dew PointF,Humidity,Sea Level PressureIn,VisibilityMPH,Wind Direction,Wind SpeedMPH,Gust SpeedMPH,PrecipitationIn,Events,Conditions,WindDirDegrees,DateUTC
12:15 AM,30.2,24.3,79,30.15,10.0,Calm,Calm,-,N/A,,Clear,0,2013-02-26 05:15:00
12:35 AM,30.6,24.1,77,30.15,10.0,Calm,Calm,-,N/A,,Clear,0,2013-02-26 05:35:00
12:55 AM,30.2,25.5,83,30.15,10.0,Calm,Calm,-,N/A,,Scattered Clouds,0,2013-02-26 05:55:00
1:15 AM,32.0,25.7,78,30.15,10.0,Calm,Calm,-,N/A,,Overcast,0,2013-02-26 06:15:00
1:35 AM,33.3,24.4,70,30.14,10.0,Calm,Calm,-,N/A,,Overcast,0,2013-02-26 06:35:00
1:55 AM,33.8,24.4,69,30.12,10.0,NNE,3.5,-,N/A,,Overcast,30,2013-02-26 06:55:00
2:15 AM,34.0,24.4,68,30.11,10.0,NE,3.5,-,N/A,,Overcast,50,2013-02-26 07:15:00
2:35 AM,34.5,24.3,66,30.11,10.0,NE,3.5,-,N/A,,Overcast,40,2013-02-26 07:35:00
2:55 AM,34.7,24.4,66,30.10,10.0,Calm,Calm,-,N/A,,Overcast,0,2013-02-26 07:55:00
3:15 AM,34.7,24.6,67,30.10,10.0,NE,3.5,-,N/A,,Overcast,40,2013-02-26 08:15:00
3:35 AM,34.7,24.6,67,30.08,10.0,NE,3.5,-,N/A,,Overcast,50,2013-02-26 08:35:00
4:15 AM,34.9,25.2,68,30.09,10.0,NE,3.5,-,N/A,,Overcast,50,2013-02-26 09:15:00
4:35 AM,34.7,25.0,68,30.07,10.0,NE,4.6,-,N/A,,Overcast,40,2013-02-26 09:35:00
4:55 AM,34.3,26.1,72,30.08,10.0,NE,4.6,-,N/A,Rain,Light Rain,40,2013-02-26 09:55:00
5:15 AM,34.7,25.9,70,30.09,10.0,NNE,3.5,-,N/A,,Overcast,30,2013-02-26 10:15:00
5:35 AM,34.0,26.8,75,30.06,10.0,NNE,4.6,-,N/A,Rain,Light Rain,20,2013-02-26 10:35:00
5:55 AM,33.4,27.3,78,30.07,7.0,NE,4.6,-,N/A,Rain,Rain,40,2013-02-26 10:55:00
6:15 AM,33.3,27.5,79,30.06,7.0,North,3.5,-,N/A,,Overcast,10,2013-02-26 11:15:00
6:35 AM,32.5,28.8,86,30.04,7.0,NNE,6.9,-,N/A,,Overcast,30,2013-02-26 11:35:00
6:55 AM,32.4,29.3,88,30.04,7.0,NNE,5.8,-,N/A,,Overcast,30,2013-02-26 11:55:00
7:15 AM,32.4,30.0,91,30.03,4.0,NNE,5.8,-,N/A,,Overcast,30,2013-02-26 12:15:00
7:35 AM,32.4,30.2,92,30.02,5.0,NNE,8.1,-,0.01,,Overcast,30,2013-02-26 12:35:00
7:55 AM,32.4,30.6,93,30.02,4.0,NNE,8.1,-,0.02,Snow,Light Snow,30,2013-02-26 12:55:00
8:15 AM,32.4,30.9,94,30.02,2.5,NE,4.6,-,0.01,Snow,Light Snow,40,2013-02-26 13:15:00
8:35 AM,32.4,31.1,95,30.01,2.5,NE,4.6,-,0.03,Snow,Light Snow,40,2013-02-26 13:35:00
8:55 AM,32.4,31.5,96,30.00,1.5,NNE,5.8,-,0.07,Snow,Light Snow,30,2013-02-26 13:55:00
9:15 AM,32.5,31.6,96,29.99,1.8,NE,5.8,-,0.04,Snow,Light Snow,40,2013-02-26 14:15:00
9:35 AM,32.5,31.8,97,29.96,1.8,NE,6.9,-,0.08,Snow,Light Snow,40,2013-02-26 14:35:00
9:55 AM,32.5,32.0,98,29.96,2.0,ENE,4.6,-,0.11,Snow,Light Snow,60,2013-02-26 14:55:00
10:15 AM,32.9,32.0,96,29.93,1.8,NNE,5.8,-,0.01,Snow,Light Snow,20,2013-02-26 15:15:00
10:35 AM,32.9,32.2,97,29.92,2.0,NE,4.6,-,0.02,,Overcast,40,2013-02-26 15:35:00
10:55 AM,33.1,32.4,97,29.89,1.5,NE,5.8,-,0.06,Snow,Light Snow,40,2013-02-26 15:55:00
11:15 AM,33.4,32.9,98,29.87,1.8,NE,5.8,-,0.01,Rain,Rain,40,2013-02-26 16:15:00
11:35 AM,34.2,33.8,99,29.86,1.5,NE,6.9,-,0.04,Rain,Rain,50,2013-02-26 16:35:00
11:55 AM,34.5,33.8,97,29.85,1.2,NE,5.8,-,0.09,,Overcast,40,2013-02-26 16:55:00
12:15 PM,34.5,34.0,98,29.83,1.8,NE,5.8,-,0.01,Rain,Rain,50,2013-02-26 17:15:00
12:35 PM,34.9,34.3,98,29.81,1.0,NNE,6.9,-,0.06,Rain,Light Rain,30,2013-02-26 17:35:00
12:55 PM,35.2,34.9,99,29.79,1.2,NE,4.6,-,0.09,Rain,Rain,40,2013-02-26 17:55:00
1:15 PM,35.6,35.1,98,29.78,1.8,NNE,3.5,-,0.03,Rain,Rain,20,2013-02-26 18:15:00
1:35 PM,35.8,35.6,99,29.75,1.8,NE,6.9,-,0.05,Rain,Rain,40,2013-02-26 18:35:00
1:55 PM,36.0,35.6,99,29.74,2.5,NE,4.6,-,0.05,Rain,Rain,50,2013-02-26 18:55:00
2:15 PM,36.5,36.0,98,29.70,2.5,NE,10.4,17.3,N/A,Rain,Rain,40,2013-02-26 19:15:00
2:35 PM,37.0,36.7,99,29.69,2.5,NNE,5.8,-,0.03,Rain,Light Rain,30,2013-02-26 19:35:00
2:55 PM,37.6,37.4,99,29.66,3.0,NE,5.8,-,0.03,Rain,Heavy Rain,50,2013-02-26 19:55:00
3:15 PM,37.9,37.6,99,29.64,2.5,NNE,8.1,-,0.01,Rain,Rain,30,2013-02-26 20:15:00
3:35 PM,38.3,37.9,99,29.63,1.8,NNE,3.5,-,0.03,Rain,Heavy Rain,20,2013-02-26 20:35:00
3:55 PM,38.7,38.3,99,29.62,3.0,North,3.5,-,0.06,Rain,Light Rain,350,2013-02-26 20:55:00
4:15 PM,38.8,38.5,99,29.62,3.0,NNE,3.5,-,0.02,Rain,Light Rain,20,2013-02-26 21:15:00
4:35 PM,38.7,38.3,99,29.64,2.5,North,4.6,-,0.04,Rain,Rain,350,2013-02-26 21:35:00
4:55 PM,38.7,38.3,99,29.63,5.0,North,5.8,-,0.05,Rain,Light Rain,360,2013-02-26 21:55:00
5:15 PM,38.7,38.1,98,29.62,2.5,NNE,4.6,-,N/A,,Drizzle,20,2013-02-26 22:15:00
5:35 PM,38.7,38.3,99,29.61,2.5,North,3.5,-,N/A,,Drizzle,360,2013-02-26 22:35:00
5:55 PM,38.7,38.3,99,29.62,5.0,Calm,Calm,-,N/A,,Drizzle,0,2013-02-26 22:55:00
6:15 PM,38.5,37.9,98,29.62,5.0,Calm,Calm,-,N/A,,Light Drizzle,0,2013-02-26 23:15:00
6:35 PM,38.3,37.9,99,29.60,5.0,NE,4.6,-,N/A,,Overcast,40,2013-02-26 23:35:00
6:55 PM,38.3,37.8,98,29.62,10.0,North,3.5,-,N/A,,Overcast,350,2013-02-26 23:55:00
7:15 PM,38.3,37.9,99,29.62,10.0,Calm,Calm,-,N/A,,Overcast,0,2013-02-27 00:15:00
7:35 PM,38.5,38.3,99,29.63,10.0,Calm,Calm,-,N/A,,Overcast,0,2013-02-27 00:35:00
7:55 PM,38.7,38.3,99,29.64,10.0,Calm,Calm,-,N/A,,Overcast,0,2013-02-27 00:55:00
8:15 PM,38.7,38.3,99,29.65,10.0,Calm,Calm,-,N/A,,Overcast,0,2013-02-27 01:15:00
8:35 PM,38.5,38.1,99,29.64,10.0,Calm,Calm,-,N/A,,Overcast,0,2013-02-27 01:35:00
8:55 PM,38.3,37.9,99,29.64,10.0,Calm,Calm,-,N/A,,Overcast,0,2013-02-27 01:55:00
9:15 PM,38.5,38.1,99,29.63,10.0,Calm,Calm,-,N/A,,Overcast,0,2013-02-27 02:15:00
9:35 PM,38.3,38.3,100,29.65,10.0,Calm,Calm,-,N/A,,Overcast,0,2013-02-27 02:35:00
9:55 PM,38.5,38.3,99,29.65,10.0,Calm,Calm,-,N/A,,Overcast,0,2013-02-27 02:55:00
10:15 PM,38.5,38.3,99,29.64,7.0,Calm,Calm,-,N/A,,Overcast,0,2013-02-27 03:15:00
10:35 PM,38.7,38.5,99,29.63,5.0,Calm,Calm,-,N/A,,Overcast,0,2013-02-27 03:35:00
10:55 PM,38.8,38.7,99,29.65,7.0,Calm,Calm,-,N/A,,Overcast,0,2013-02-27 03:55:00
11:15 PM,38.7,38.5,99,29.64,10.0,Calm,Calm,-,N/A,,Overcast,0,2013-02-27 04:15:00
11:35 PM,38.7,38.5,99,29.64,10.0,Calm,Calm,-,N/A,,Overcast,0,2013-02-27 04:35:00
11:55 PM,38.5,38.3,99,29.63,7.0,Calm,Calm,-,N/A,,Overcast,0,2013-02-27 04:55:00